Location: Moscow
(38.8570°N, 84.2291°W)
Time: 18:48:29
(UTC+00:00)

METEOR M2 - Visible Passes

Search period start: 07 March 2026 00:00
Search period end: 17 March 2026 00:00
Orbit: 817 x 824 km, 98.5° (Epoch: 7 March)

Date Brightness Start Highest point End Pass type
(mag) Time Alt. Az. Time Alt. Az. Time Alt. Az.
7 Mar ? 09:14:17 10° NNE 09:19:05 32° E 09:22:36 16° SSE visible
7 Mar ? 10:54:26 10° N 10:59:05 31° WNW 11:03:44 10° SW visible
8 Mar ? 08:54:17 10° NE 08:58:17 21° E 09:01:54 11° SE visible
8 Mar ? 10:33:28 10° N 10:38:35 46° WNW 10:43:16 12° SW visible
9 Mar ? 08:34:58 10° ENE 08:37:25 13° E 08:39:51 10° ESE visible
9 Mar ? 10:12:39 10° N 10:18:01 72° WNW 10:22:34 15° SSW visible
10 Mar ? 09:52:00 10° NNE 09:57:24 75° ESE 10:01:51 15° S visible
11 Mar ? 09:31:31 10° NNE 09:36:43 47° E 09:41:08 14° S visible
11 Mar ? 11:12:27 10° NNW 11:16:27 22° WNW 11:20:26 10° WSW visible
12 Mar ? 09:11:14 10° NE 09:15:58 31° E 09:20:25 11° SSE visible
12 Mar ? 10:51:16 10° N 10:56:00 32° WNW 11:00:43 10° SW visible
13 Mar ? 08:51:17 10° NE 08:55:09 20° E 08:58:59 10° SE visible
13 Mar ? 10:30:19 10° N 10:35:29 49° WNW 10:40:38 10° SW visible
14 Mar ? 08:32:09 10° ENE 08:34:16 12° E 08:36:23 10° ESE visible
14 Mar ? 10:09:31 10° N 10:14:55 76° WNW 10:20:16 10° SSW visible
15 Mar ? 09:48:54 10° NNE 09:54:17 70° ESE 09:59:38 10° S visible
16 Mar ? 09:28:26 10° NNE 09:33:35 45° E 09:38:42 10° S visible
16 Mar ? 11:09:15 10° NNW 11:13:22 23° WNW 11:17:28 10° WSW visible
